Regional Weather Roundup
Issued by NWS

Home | Current Version | Previous Version | Graphics & Text | Print | Product List | Glossary On
Versions: 1 2 3 4 5 6 7 8 9 10 11 12 13 14 15 16 17 18 19 20 21 22 23 24 25 26 27 28 29 30 31 32 33 34 35 36 37 38 39 40 41 42 43 44 45 46 47 48 49 50
000
ASUS45 KBOU 250207
RWRCO

WEATHER ROUNDUP FOR COLORADO
NATIONAL WEATHER SERVICE DENVER/BOULDER CO
800 PM MDT THU JUL 24 2014

NOTE: "FAIR" INDICATES FEW OR NO CLOUDS BELOW 12000 FEET WITH NO
SIGNIFICANT WEATHER AND/OR OBSTRUCTIONS TO VISIBILITY.

COZ001>005-013-030-031-250300-
...NORTHWEST COLORADO...

CITY           SKY/WX    TMP DP  RH WIND       PRES   REMARKS
CRAIG          MOCLDY    73  47  39 SW13      30.13F
HAYDEN         MOCLDY    81  45  28 SW10G17   30.15F
MEEKER         TSTM      70  54  56 NE12      30.18R
MOUNT WERNER   NOT AVBL
STEAMBOAT SPGS MOCLDY    75  55  50 SE6       30.20S
WALDEN         MOCLDY    72  45  37 SW10      30.30S
$$

COZ006>008-011-250300-
...WEST CENTRAL VALLEYS...

CITY           SKY/WX    TMP DP  RH WIND       PRES   REMARKS
GRAND JUNCTION PTCLDY    82  50  32 S29G35    30.05R
MONTROSE       MOCLDY    74  54  49 SE18      30.20F
EAGLE          MOCLDY    73  52  46 W16G24    30.23S
RIFLE          CLOUDY    78  50  37 E16       30.11R
DELTA          MOCLDY    79  56  45 SE6       30.15F
NUCLA          MOCLDY    77  52  41 E17       30.22S
$$

COZ017>023-064>068-250300-
...SOUTHWEST COLORADO...

CITY           SKY/WX    TMP DP  RH WIND       PRES   REMARKS
DURANGO        CLOUDY    73  54  51 NW16G23   30.25R
CORTEZ         PTCLDY    79  51  37 S16       30.18R
PAGOSA SPRINGS CLOUDY    76  45  33 NW6       30.33R
TELLURIDE      NOT AVBL
WOLF CREEK PAS NOT AVBL
$$

COZ009-010-012-014-032>034-037-058>063-250300-
...CENTRAL COLORADO...

CITY           SKY/WX    TMP DP  RH WIND       PRES   REMARKS
ASPEN          LGT RAIN  63  52  67 VRB3      30.38R
BUENA VISTA    CLOUDY    68  47  46 SE18G25   30.38R
COPPER MTN     CLOUDY    59  36  41 SW12G18   30.68R
BERTHOUD PASS  FAIR      50  36  57 NW9       30.72R
COTTONWOOD PAS CLOUDY    59  50  72 W9        30.52R
GUNNISON       MOCLDY    66  48  52 S8        30.40R
KREMMLING      MOCLDY    70  50  49 W8        30.28R
LEADVILLE      CLOUDY    61  41  47 N7        30.50R
MONARCH PASS   LGT RAIN  46  43  87 W23       30.79F
SALIDA         CLOUDY   N/A N/A N/A W6        30.42R
SUNLIGHT       MOCLDY    55  48  76 CALM      30.59S
WILKERSON PASS CLOUDY    57  41  54 SW3       30.64R
$$

COZ069>075-250300-
...SAN LUIS VALLEY/SANGRE DE CRISTO MOUNTAINS...

CITY           SKY/WX    TMP DP  RH WIND       PRES   REMARKS
ALAMOSA        MOCLDY    69  49  48 NW17G24   30.32R
LA VETA PASS   CLOUDY    63  41  45 SW13G22   30.49S
SAGUACHE       CLOUDY    61  54  77 NW15      30.39R
$$

COZ035-036-038>040-250300-
...NORTHERN COLORADO FRONT RANGE...

CITY           SKY/WX    TMP DP  RH WIND       PRES   REMARKS
DENVER INTL AP MOCLDY    86  45  23 SE5       30.06R
DMNS CITY PARK   N/A     80  51  35 S7G15     30.07R
AURORA         MOCLDY    80  53  39 S17G28    30.12R
FRONT RANGE AP MOCLDY    86  50  28 CALM      30.08R
ERIE MUNI ARPT MOCLDY    83  47  29 S8        30.03R
BOULDER MUN AP MOCLDY    84  52  32 S6        30.04R
CENTENNIAL     TSTM      72  56  57 S21G29    30.14R
BROOMFIELD     MOCLDY    82  55  39 VRB6      30.10
FORT COLLINS   MOCLDY    81  59  47 SE8       30.00R
LONGMONT       MOCLDY    85  53  32 SE6       30.03R
$$

COZ041-046-047-076>085-087-088-250300-
...PIKES PEAK/PALMER DIVIDE AND SOUTHERN FOOTHILLS...

CITY           SKY/WX    TMP DP  RH WIND       PRES   REMARKS
COLO. SPRINGS  TSTM      71  53  52 N28G36    30.18R
A. F. ACADEMY  LGT RAIN  64  57  77 E14       30.21F
ELLICOTT       CLOUDY    75  48  38 N30G40    30.14R
FALCON         LGT RAIN  64  53  68 NW20G32   30.28R
FORT CARSON    TSTM      75  52  43 N30G41    30.11F
LIMON          LGT RAIN  72  56  57 W24G41    30.09R
MONUMENT HILL  CLOUDY    61  54  77 SW7       30.28R
TRINIDAD       PTCLDY    88  42  20 S16       30.06R
$$

COZ042>045-048>051-090-091-250300-
...NORTHEAST COLORADO...

CITY           SKY/WX    TMP DP  RH WIND       PRES   REMARKS
GREELEY ARPT   MOCLDY    79  63  57 CALM      30.00R
AKRON          MOCLDY    81  50  33 SE9       30.01R
BURLINGTON     CLOUDY    90  43  19 N14G21    29.96R
WRAY             N/A     83  52  33 N12       29.92R
STERLING       MOCLDY    79  66  65 CALM      29.93S
HOLYOKE        CLOUDY    79  61  53 N9        29.93R
FORT MORGAN    MOCLDY    80  52  37 E6        30.00R
$$

COZ086-089-092>099-250300-
...SOUTHEAST COLORADO...

CITY           SKY/WX    TMP DP  RH WIND       PRES   REMARKS
PUEBLO         CLOUDY    85  48  27 N33G45    29.97R
LA JUNTA       CLEAR     91  49  23 SE8       29.91S
LAMAR          CLEAR     93  41  16 S20       29.88R
SPRINGFIELD      N/A     86  44  23 S17       30.00R
$$


USA.gov is the U.S. government's official web portal to all federal, state and local government web resources and services.